C/2017 K2 ( PanSTARRS )

Japanese version
Home page
Updated on June 2, 2017

---------------------------------------------------------------------

* Profile

Discovery Date May 21, 2017
Magnitude 20.8 mag
Discoverer Pan-STARRS 1 telescope (Haleakala)

* Orbital Elements

Epoch 2023 Oct. 23.0 TT = JDT 2460240.5
T 2023 Oct. 8.10626 TT                                  MPCW
q   1.6906489            (2000.0)            P               Q
n   0.00787509     Peri.  244.29696     -0.00057267     +0.08724510
a  25.0206679      Node    85.47691     -0.04095249     +0.99534912
e   0.9324299      Incl.   87.85438     -0.99916093     -0.04084626
P 125
From 50 observations 2017 May 21-30, mean residual 0".3.

* Finding Charts

* Magnitudes Graph

        m1 = 1.5 + 5 log d + 10.0 log r

---------------------------------------------------------------------

The orbital elements are published on M.P.E.C. 2017-K90.
The charts are made with StellaNavigator Ver.10 (AstroArts).
The magnitudes graphs are made with Comet for Windows.

---------------------------------------------------------------------

Copyright(C) Seiichi Yoshida (comet@aerith.net). All rights reserved.